TimeCST,TemperatureF,Dew PointF,Humidity,Sea Level PressureIn,VisibilityMPH,Wind Direction,Wind SpeedMPH,Gust SpeedMPH,PrecipitationIn,Events,Conditions,WindDirDegrees,DateUTC
12:18 AM,64.4,60.8,88,30.08,10.0,Variable,3.5,-,0.00,,Overcast,0,2013-01-09 06:18:00
12:53 AM,63.0,60.1,90,30.06,10.0,East,5.8,-,0.00,,Overcast,100,2013-01-09 06:53:00
1:53 AM,63.0,60.1,90,30.05,10.0,ESE,8.1,-,N/A,,Overcast,110,2013-01-09 07:53:00
2:28 AM,62.6,60.8,94,30.05,10.0,East,5.8,-,N/A,,Mostly Cloudy,80,2013-01-09 08:28:00
2:53 AM,63.0,60.1,90,30.06,10.0,East,5.8,-,N/A,,Mostly Cloudy,80,2013-01-09 08:53:00
3:53 AM,63.0,60.1,90,30.05,10.0,East,5.8,-,N/A,,Scattered Clouds,90,2013-01-09 09:53:00
4:01 AM,62.6,60.8,94,30.06,10.0,East,6.9,-,N/A,,Mostly Cloudy,90,2013-01-09 10:01:00
4:53 AM,63.0,60.1,90,30.06,10.0,East,5.8,-,N/A,,Overcast,90,2013-01-09 10:53:00
5:53 AM,63.0,60.1,90,30.09,10.0,Calm,Calm,-,N/A,,Overcast,0,2013-01-09 11:53:00
6:40 AM,62.6,60.8,94,30.10,10.0,East,3.5,-,N/A,,Overcast,80,2013-01-09 12:40:00
6:53 AM,62.1,60.1,93,30.11,10.0,Calm,Calm,-,N/A,,Overcast,0,2013-01-09 12:53:00
7:53 AM,62.1,60.1,93,30.12,10.0,NE,3.5,-,N/A,,Overcast,50,2013-01-09 13:53:00
8:53 AM,63.0,61.0,93,30.14,10.0,ENE,3.5,-,N/A,,Overcast,70,2013-01-09 14:53:00
9:53 AM,64.0,61.0,90,30.17,10.0,ENE,3.5,-,0.01,Rain,Light Rain,60,2013-01-09 15:53:00
10:50 AM,64.4,62.6,94,30.16,2.5,Calm,Calm,-,0.09,Rain,Heavy Rain,0,2013-01-09 16:50:00
10:51 AM,64.0,62.1,93,30.16,2.5,Calm,Calm,-,0.09,Rain,Heavy Rain,0,2013-01-09 16:51:00
11:04 AM,64.4,62.6,94,30.15,4.0,Calm,Calm,-,0.02,Rain,Light Rain,0,2013-01-09 17:04:00
11:36 AM,64.4,62.6,94,30.13,4.0,NE,4.6,-,0.08,Rain,Light Rain,40,2013-01-09 17:36:00
11:53 AM,64.0,62.1,93,30.13,6.0,NE,3.5,-,0.09,Rain,Light Rain,50,2013-01-09 17:53:00
12:02 PM,64.4,62.6,94,30.13,10.0,NE,3.5,-,0.00,Rain,Light Rain,50,2013-01-09 18:02:00
12:09 PM,64.4,62.6,94,30.13,9.0,Calm,Calm,-,0.00,Rain,Light Rain,0,2013-01-09 18:09:00
12:53 PM,64.9,63.0,93,30.10,5.0,Calm,Calm,-,0.05,Rain,Rain,0,2013-01-09 18:53:00
1:09 PM,64.4,62.6,94,30.10,1.8,ENE,3.5,-,0.09,Rain,Heavy Rain,60,2013-01-09 19:09:00
1:25 PM,64.4,62.6,94,30.10,2.5,NNE,3.5,-,0.19,Rain,Heavy Rain,20,2013-01-09 19:25:00
1:28 PM,64.4,62.6,94,30.09,3.0,Calm,Calm,-,0.20,Rain,Heavy Rain,0,2013-01-09 19:28:00
1:53 PM,64.0,62.1,93,30.06,6.0,NE,5.8,-,0.25,Rain,Rain,40,2013-01-09 19:53:00
2:02 PM,64.4,62.6,94,30.07,7.0,ENE,3.5,-,0.01,Rain,Rain,70,2013-01-09 20:02:00
2:53 PM,64.9,63.0,93,30.07,8.0,NE,5.8,-,0.11,Rain,Light Rain,50,2013-01-09 20:53:00
3:09 PM,64.4,62.6,94,30.09,1.5,East,3.5,-,0.18,Rain,Heavy Rain,90,2013-01-09 21:09:00
3:19 PM,64.4,62.6,94,30.08,1.0,Variable,3.5,-,0.37,Rain,Heavy Rain,0,2013-01-09 21:19:00
3:27 PM,64.4,62.6,94,30.09,2.0,ESE,4.6,-,0.43,Rain,Heavy Rain,110,2013-01-09 21:27:00
3:38 PM,64.4,62.6,94,30.10,1.8,Calm,Calm,-,0.53,Rain,Heavy Rain,0,2013-01-09 21:38:00
3:46 PM,64.4,62.6,94,30.10,2.5,ENE,3.5,-,0.58,Rain,Heavy Rain,70,2013-01-09 21:46:00
3:53 PM,64.9,63.0,93,30.09,2.0,ENE,5.8,-,0.63,Rain,Heavy Rain,70,2013-01-09 21:53:00
4:01 PM,64.4,62.6,94,30.07,3.0,Variable,4.6,-,0.03,Rain,Heavy Rain,0,2013-01-09 22:01:00
4:04 PM,64.4,62.6,94,30.08,3.0,ENE,5.8,-,0.04,Rain-Thunderstorm,Rain,60,2013-01-09 22:04:00
4:21 PM,64.4,62.6,94,30.08,6.0,ENE,5.8,-,0.08,Rain,Rain,70,2013-01-09 22:21:00
4:28 PM,64.4,62.6,94,30.08,6.0,ENE,8.1,-,0.10,Rain,Rain,60,2013-01-09 22:28:00
4:53 PM,64.9,63.0,93,30.08,10.0,ENE,8.1,-,0.13,Rain,Light Rain,70,2013-01-09 22:53:00
5:42 PM,64.4,62.6,94,30.09,10.0,ENE,5.8,-,0.06,Rain,Light Rain,60,2013-01-09 23:42:00
5:53 PM,64.9,63.0,93,30.10,7.0,ENE,4.6,-,0.08,Rain,Rain,70,2013-01-09 23:53:00
6:04 PM,64.4,62.6,94,30.10,6.0,ENE,5.8,-,0.03,Rain,Rain,60,2013-01-10 00:04:00
6:21 PM,64.4,62.6,94,30.09,4.0,ENE,4.6,-,0.12,Rain,Heavy Rain,60,2013-01-10 00:21:00
6:39 PM,64.4,62.6,94,30.10,2.5,East,6.9,-,0.32,Rain,Heavy Rain,90,2013-01-10 00:39:00
6:48 PM,64.4,62.6,94,30.10,1.8,ENE,6.9,-,0.47,Rain,Heavy Rain,60,2013-01-10 00:48:00
6:53 PM,64.0,62.1,93,30.10,3.0,ENE,9.2,-,0.48,Rain,Rain,60,2013-01-10 00:53:00
7:02 PM,64.4,62.6,94,30.14,4.0,WSW,15.0,21.9,0.04,Rain,Rain,250,2013-01-10 01:02:00
7:09 PM,64.4,62.6,94,30.16,1.8,WSW,12.7,25.3,0.27,Rain,Heavy Rain,250,2013-01-10 01:09:00
7:27 PM,64.4,62.6,94,30.14,2.0,Calm,Calm,-,0.56,Rain,Heavy Rain,0,2013-01-10 01:27:00
7:39 PM,64.4,62.6,94,30.14,4.0,East,4.6,-,0.60,Rain,Rain,80,2013-01-10 01:39:00
7:53 PM,64.9,63.0,93,30.13,6.0,NNE,3.5,-,0.65,Rain,Rain,30,2013-01-10 01:53:00
8:53 PM,64.9,63.0,93,30.13,6.0,Calm,Calm,-,0.22,Rain,Rain,0,2013-01-10 02:53:00
9:26 PM,64.4,62.6,94,30.13,5.0,East,3.5,-,N/A,Rain-Thunderstorm,Heavy Rain,80,2013-01-10 03:26:00
9:41 PM,64.4,62.6,94,30.12,6.0,NE,6.9,-,0.20,Rain,Rain,50,2013-01-10 03:41:00
9:53 PM,64.9,63.0,93,30.12,6.0,ENE,5.8,-,0.23,Rain,Rain,60,2013-01-10 03:53:00
10:51 PM,64.4,62.6,94,30.13,5.0,ENE,5.8,-,0.24,Rain-Thunderstorm,Heavy Thunderstorms and Rain,60,2013-01-10 04:51:00
10:53 PM,64.9,63.0,93,30.12,5.0,ENE,4.6,-,0.24,Rain-Thunderstorm,Thunderstorms and Rain,60,2013-01-10 04:53:00
11:06 PM,64.4,62.6,94,30.14,5.0,Calm,Calm,-,N/A,Rain,Rain,0,2013-01-10 05:06:00
11:27 PM,64.4,62.6,94,30.13,2.5,ENE,3.5,-,0.11,Rain,Heavy Rain,70,2013-01-10 05:27:00
11:39 PM,64.4,62.6,94,30.12,5.0,NE,4.6,-,0.14,Rain,Rain,50,2013-01-10 05:39:00
11:48 PM,64.4,64.4,100,30.13,9.0,ENE,3.5,-,0.15,Rain,Light Rain,60,2013-01-10 05:48:00
11:53 PM,64.9,63.0,93,30.14,8.0,ENE,3.5,-,0.16,Rain,Light Rain,70,2013-01-10 05:53:00
11:58 PM,64.4,62.6,94,30.14,6.0,NE,3.5,-,0.02,Rain,Rain,40,2013-01-10 05:58:00